User: anonymous   Login
Location: Friaudour
(46.0460°N, 1.2873°E)
Time: 23:30:40
(UTC+00:00)
Language:

Gbstr 26 Del rocket - Orbit

View from above orbital plane
View from above orbital plane
View from above satellite
View from above satellite

Ground track
Ground track

The orbit data is extracted from the following two-line orbital elements,

1 25876U 99041E   20273.47392992 +.00000093 +00000-0 +55154-4 0  9996
2 25876 051.7668 259.7004 0530761 287.4995 066.8614 14.04462461083246
Epoch (UTC): 29 September 2020 11:22:27
Eccentricity: 0.0530761
inclination: 51.7668°
perigee height: 493 km
apogee height: 1263 km
right ascension of ascending node: 259.7004°
argument of perigee: 287.4995°
revolutions per day: 14.04462461
mean anomaly at epoch: 66.8614°
orbit number at epoch: 8324

The dashed part of the orbit path shows where the satellite is in the earth's shadow,  

DLR